Regional Weather Roundup
Issued by NWS Cleveland, OH

Home | Current Version | Previous Version | Graphics & Text | Print | Product List | Glossary On
Versions: 1 2 3 4 5 6 7 8 9 10 11 12 13 14 15 16 17 18 19 20 21 22 23 24 25 26 27 28 29 30 31 32 33 34 35 36 37 38 39 40 41 42 43 44 45 46 47 48 49 50
102
ASUS41 KCLE 260700
RWRCLE
OHIO REGIONAL WEATHER ROUNDUP
NATIONAL WEATHER SERVICE WILMINGTON, OH
300 AM EDT SUN MAR 26 2017

NOTE: "FAIR" INDICATES FEW OR NO CLOUDS BELOW 12,000 FEET WITH NO
SIGNIFICANT WEATHER AND/OR OBSTRUCTIONS TO VISIBILITY.

OHZ001>008-015>018-024>027-034-035-043-044-260800-
   NORTHWEST OHIO

CITY           SKY/WX    TMP DP  RH WIND       PRES   REMARKS
DEFIANCE       CLOUDY    39  36  89 W7        30.09S
FINDLAY        FAIR      43  37  79 NE9       30.01F
TOLEDO EXPRESS CLOUDY    38  36  92 E13       30.05F
TOLEDO EXEC    CLOUDY    39  37  92 NE9G18    30.07F
LIMA           CLOUDY    46  43  89 VRB6G22   30.03R
$$

OHZ009>014-019>023-028>033-038-089-260800-
   NORTHEAST OHIO

CITY           SKY/WX    TMP DP  RH WIND       PRES   REMARKS
CLE-HOPKINS    MOCLDY    45  38  76 N5        30.08F
CLE-LAKEFRONT  FAIR      40  37  89 NE12      30.06F
CUY CO. ARPT   NOT AVBL
LORAIN-ELYRIA  FAIR      42  37  82 E6        30.05F
ASHTABULA      FAIR      38  36  92 NE5       30.12F
AKRON-CANTON   MOCLDY    57  49  74 E7        30.06F
WOOSTER        NOT AVBL
MANSFIELD      FAIR      57  51  80 SE7       30.04F
YOUNGSTOWN     CLOUDY    54  49  83 E9        30.10F
$$

OHZ042-051>053-060>062-070>072-077>081-260800-
  SOUTHWEST OHIO

CITY           SKY/WX    TMP DP  RH WIND       PRES   REMARKS
CINC-COVINGTON CLOUDY    60  56  86 SW8       30.00S
CINC-LUNKEN    CLOUDY    59  56  89 SW3       30.01R
HAMILTON       LGT RAIN  60  57  89 W3        30.00F
DAYTON         NOT AVBL
WRIGHT-PAT AFB CLOUDY    62  49  63 S6        30.00R
DAYTON GENERAL CLOUDY    61  49  64 SE3       29.99F
WILMINGTON     CLOUDY    60  50  69 SE7       29.99F
$$

OHZ036-037-039>041-045>050-054>059-063>069-073>076-082>088-260800-
  CENTRAL AND SOUTHEAST OHIO

CITY           SKY/WX    TMP DP  RH WIND       PRES   REMARKS
COLUMBUS       CLOUDY    64  50  60 SE9       30.00F
OSU AIRPORT    FAIR      61  50  67 SE8       30.00F
BOLTON FIELD   NOT AVBL
RICKENBACK AFB NOT AVBL
NEWARK         FAIR      56  49  77 CALM      30.01F
MARION         FAIR      60  50  69 SE8       30.01F
LANCASTER      FAIR      55  49  80 CALM      30.01F
ZANESVILLE     FAIR      62  49  62 SE6       30.03F
NEW PHILLY     MOCLDY    57  51  80 CALM      30.06F
$$




USA.gov is the U.S. government's official web portal to all federal, state and local government web resources and services.